This is the latest recevied weather packets stored in our database for station/object WW6Q. If no packets are shown the sender has not sent any weather packets the latest 10 day(s).
| Time | Temp. | Humidity | Pressure | Rain* | Wind** | Luminosity | Snow |
|---|---|---|---|---|---|---|---|
| 1788374136 | 34.44° C | 50% | 1014.6 hPa | 0 mm | - | 680 W/m² | - |
| 1788373832 | 34.44° C | 50% | 1014.9 hPa | 0 mm | - | 702 W/m² | - |
| 1788373528 | 34.44° C | 51% | 1014.9 hPa | 0 mm | - | 706 W/m² | - |
| 1788373224 | 33.89° C | 52% | 1014.8 hPa | 0 mm | - | 711 W/m² | - |
| 1788372921 | 33.33° C | 50% | 1015 hPa | 0 mm | - | 714 W/m² | - |
| 1788372614 | 33.33° C | 52% | 1015 hPa | 0 mm | - | 709 W/m² | - |
| 1788372314 | 33.33° C | 55% | 1015.1 hPa | 0 mm | - | 719 W/m² | - |
| 1788372010 | 33.33° C | 54% | 1015 hPa | 0 mm | - | 724 W/m² | - |
| 1788371710 | 33.33° C | 54% | 1015.1 hPa | 0 mm | - | 731 W/m² | - |
| 1788371406 | 32.78° C | 60% | 1015 hPa | 0 mm | - | 732 W/m² | - |
| 1788371103 | 32.78° C | 59% | 1015.1 hPa | 0 mm | - | 735 W/m² | - |
| 1788370798 | 32.78° C | 57% | 1015.2 hPa | 0 mm | - | 737 W/m² | - |
| 1788370497 | 32.78° C | 59% | 1015.2 hPa | 0 mm | - | 738 W/m² | - |
| 1788370192 | 33.33° C | 53% | 1015.3 hPa | 0 mm | - | 737 W/m² | - |
| 1788369892 | 33.33° C | 60% | 1015.2 hPa | 0 mm | - | 733 W/m² | - |
| 1788369587 | 33.33° C | 54% | 1015.4 hPa | 0 mm | - | 708 W/m² | - |
| 1788369282 | 32.78° C | 59% | 1015.3 hPa | 0 mm | - | 711 W/m² | - |
| 1788368978 | 33.33° C | 54% | 1015.2 hPa | 0 mm | - | 713 W/m² | - |
| 1788368673 | 33.89° C | 57% | 1015.5 hPa | 0 mm | - | 717 W/m² | - |
| 1788368369 | 33.89° C | 57% | 1015.5 hPa | 0 mm | - | 701 W/m² | - |
| 1788368068 | 33.33° C | 53% | 1015.5 hPa | 0 mm | - | 701 W/m² | - |
| 1788367768 | 33.33° C | 54% | 1015.5 hPa | 0 mm | - | 701 W/m² | - |
| 1788367464 | 32.78° C | 60% | 1015.6 hPa | 0 mm | - | 703 W/m² | - |
| 1788367163 | 33.33° C | 58% | 1015.6 hPa | 0 mm | - | 685 W/m² | - |
| 1788366858 | 32.78° C | 57% | 1015.5 hPa | 0 mm | - | 685 W/m² | - |
* Rain latest hour (hover to see other rain measurements)
** Current wind speed in m/s (hover to see current wind gust speed)